FDX706 KDEN-KSLC

Flight info

Callsign FDX706
Flight time 1h 2m
Altitude 30000
Route ZIMMR4 CHNGY EKR PITTT2
Aircraft B77L/H-SDE1E2E3FGHIJ2J3J4J5M1RWXY/LB1D1

Departure

Time 2026-05-07 18:18
Airport Denver International Airport (KDEN)

Arrival

Time 2026-05-07 19:21
Airport Salt Lake City International Airport (KSLC)
Time Latitude Longitude Altitude Speed Heading
2026-05-07 17:17 39.83097 -104.67344 5391 ft 0 kts
2026-05-07 18:04 39.83083 -104.67344 5390 ft 4 kts
2026-05-07 18:04 39.83056 -104.67347 5385 ft 4 kts 12°
2026-05-07 18:05 39.83030 -104.67357 5385 ft 4 kts 29°
2026-05-07 18:05 39.83013 -104.67378 5385 ft 4 kts 80°
2026-05-07 18:05 39.83012 -104.67386 5385 ft 3 kts 92°
2026-05-07 18:09 39.83011 -104.67355 5393 ft 12 kts 92°
2026-05-07 18:09 39.82961 -104.67185 5392 ft 24 kts 120°
2026-05-07 18:10 39.82937 -104.66972 5410 ft 25 kts 90°
2026-05-07 18:10 39.82935 -104.66725 5420 ft 31 kts 90°
2026-05-07 18:10 39.82933 -104.66495 5421 ft 0 kts 91°
2026-05-07 18:14 39.82933 -104.66459 5431 ft 12 kts 91°
2026-05-07 18:14 39.82932 -104.66316 5441 ft 15 kts 90°
2026-05-07 18:14 39.82931 -104.66205 5440 ft 7 kts 90°
2026-05-07 18:15 39.82931 -104.66201 5440 ft 0 kts 90°
2026-05-07 18:16 39.82931 -104.66123 5441 ft 15 kts 90°
2026-05-07 18:17 39.83012 -104.66053 5440 ft 23 kts
2026-05-07 18:17 39.83360 -104.66049 5438 ft 83 kts
2026-05-07 18:17 39.84161 -104.66042 5415 ft 146 kts
2026-05-07 18:17 39.85336 -104.66027 5416 ft 191 kts 358°
2026-05-07 18:18 39.86705 -104.65961 5694 ft 206 kts 359°
2026-05-07 18:18 39.88202 -104.66000 5979 ft 219 kts 345°
2026-05-07 18:18 39.89500 -104.67001 6349 ft 223 kts 304°
2026-05-07 18:18 39.90231 -104.68778 6779 ft 230 kts 295°
2026-05-07 18:19 39.90986 -104.70715 6988 ft 250 kts 291°
2026-05-07 18:19 39.91373 -104.72915 6996 ft 251 kts 278°
2026-05-07 18:19 39.91580 -104.75164 7085 ft 247 kts 276°
2026-05-07 18:19 39.91779 -104.77415 7452 ft 254 kts 277°
2026-05-07 18:20 39.92002 -104.79690 8295 ft 253 kts 278°
2026-05-07 18:20 39.92248 -104.81993 8940 ft 263 kts 279°
2026-05-07 18:20 39.92515 -104.84382 9620 ft 270 kts 279°
2026-05-07 18:20 39.92794 -104.86821 10380 ft 277 kts 279°
2026-05-07 18:21 39.93093 -104.89416 10629 ft 300 kts 279°
2026-05-07 18:21 39.93335 -104.92164 11268 ft 310 kts 274°
2026-05-07 18:21 39.93389 -104.94997 12061 ft 315 kts 272°
2026-05-07 18:21 39.93419 -104.97829 12950 ft 316 kts 273°
2026-05-07 18:22 39.93466 -105.00698 13881 ft 318 kts 274°
2026-05-07 18:22 39.93504 -105.02659 14406 ft 321 kts 274°
2026-05-07 18:22 39.93588 -105.06559 15348 ft 327 kts 274°
2026-05-07 18:22 39.93655 -105.09542 16062 ft 332 kts 273°
2026-05-07 18:23 39.93722 -105.12570 16789 ft 336 kts 273°
2026-05-07 18:23 39.93790 -105.15627 17522 ft 340 kts 273°
2026-05-07 18:23 39.93856 -105.18687 18225 ft 344 kts 273°
2026-05-07 18:23 39.93924 -105.21826 18863 ft 348 kts 273°
2026-05-07 18:24 39.94084 -105.24988 19533 ft 349 kts 277°
2026-05-07 18:24 39.94353 -105.28145 20222 ft 351 kts 277°
2026-05-07 18:24 39.94633 -105.31327 20737 ft 357 kts 278°
2026-05-07 18:24 39.94904 -105.34580 21257 ft 364 kts 278°
2026-05-07 18:25 39.95165 -105.37869 21963 ft 365 kts 278°
2026-05-07 18:25 39.95420 -105.41136 22589 ft 368 kts 278°
2026-05-07 18:25 39.95681 -105.44466 23231 ft 371 kts 277°
2026-05-07 18:25 39.95945 -105.47840 23830 ft 374 kts 278°
2026-05-07 18:26 39.96208 -105.51216 24457 ft 375 kts 278°
2026-05-07 18:26 39.96472 -105.54602 25087 ft 375 kts 278°
2026-05-07 18:26 39.96731 -105.57976 25716 ft 375 kts 278°
2026-05-07 18:26 39.96990 -105.61371 26256 ft 377 kts 278°
2026-05-07 18:27 39.97250 -105.64792 26759 ft 380 kts 279°
2026-05-07 18:27 39.97491 -105.68249 27087 ft 389 kts 278°
2026-05-07 18:27 39.97691 -105.71831 27184 ft 403 kts 277°
2026-05-07 18:27 39.97874 -105.75545 27268 ft 417 kts 277°
2026-05-07 18:28 39.98055 -105.79380 27385 ft 430 kts 277°
2026-05-07 18:28 39.98241 -105.83325 27545 ft 441 kts 277°
2026-05-07 18:28 39.98432 -105.87352 27847 ft 447 kts 277°
2026-05-07 18:28 39.98626 -105.91407 28283 ft 449 kts 277°
2026-05-07 18:29 39.98818 -105.95427 28774 ft 450 kts 277°
2026-05-07 18:29 39.99015 -105.99509 29234 ft 452 kts 277°
2026-05-07 18:29 39.99214 -106.03614 29635 ft 455 kts 277°
2026-05-07 18:29 39.99411 -106.07731 30123 ft 456 kts 277°
2026-05-07 18:30 39.99607 -106.11858 30097 ft 455 kts 277°
2026-05-07 18:30 39.99989 -106.20037 30133 ft 449 kts 277°
2026-05-07 18:31 40.00367 -106.28177 30135 ft 452 kts 277°
2026-05-07 18:31 40.00742 -106.36371 30115 ft 454 kts 277°
2026-05-07 18:32 40.01112 -106.44601 30133 ft 455 kts 277°
2026-05-07 18:32 40.01476 -106.52865 30142 ft 456 kts 277°
2026-05-07 18:33 40.01833 -106.61132 30137 ft 456 kts 277°
2026-05-07 18:33 40.02178 -106.69350 30154 ft 456 kts 277°
2026-05-07 18:34 40.02522 -106.77603 30153 ft 456 kts 277°
2026-05-07 18:34 40.02862 -106.85885 30160 ft 456 kts 277°
2026-05-07 18:35 40.03195 -106.94156 30182 ft 456 kts 277°
2026-05-07 18:35 40.03521 -107.02425 30181 ft 456 kts 277°
2026-05-07 18:36 40.03842 -107.10707 30194 ft 458 kts 277°
2026-05-07 18:36 40.04003 -107.14864 30484 ft 460 kts 277°
2026-05-07 18:36 40.04158 -107.18971 30986 ft 457 kts 277°
2026-05-07 18:36 40.04313 -107.23105 31532 ft 454 kts 277°
2026-05-07 18:37 40.04464 -107.27209 32083 ft 450 kts 277°
2026-05-07 18:37 40.04762 -107.35372 32181 ft 449 kts 277°
2026-05-07 18:38 40.05055 -107.43497 32173 ft 448 kts 277°
2026-05-07 18:38 40.05345 -107.51644 32163 ft 449 kts 277°
2026-05-07 18:39 40.05627 -107.59808 32162 ft 450 kts 277°
2026-05-07 18:39 40.05904 -107.67983 32153 ft 451 kts 277°
2026-05-07 18:40 40.06174 -107.76102 32122 ft 450 kts 277°
2026-05-07 18:40 40.06440 -107.84275 32209 ft 450 kts 277°
2026-05-07 18:41 40.06768 -107.92425 32209 ft 448 kts 280°
2026-05-07 18:41 40.07874 -108.00380 32111 ft 444 kts 285°
2026-05-07 18:42 40.09117 -108.08279 32111 ft 445 kts 284°
2026-05-07 18:42 40.09609 -108.16386 32114 ft 450 kts 276°
2026-05-07 18:43 40.09726 -108.24550 32106 ft 450 kts 276°
2026-05-07 18:43 40.09864 -108.32673 32116 ft 449 kts 276°
2026-05-07 18:44 40.10017 -108.40831 32108 ft 448 kts 276°
2026-05-07 18:44 40.10167 -108.48975 32103 ft 447 kts 276°
2026-05-07 18:45 40.10309 -108.57040 32108 ft 447 kts 276°
2026-05-07 18:45 40.10448 -108.65147 32100 ft 447 kts 276°
2026-05-07 18:46 40.10581 -108.73265 32105 ft 447 kts 276°
2026-05-07 18:46 40.10708 -108.81383 32093 ft 446 kts 276°
2026-05-07 18:47 40.10833 -108.89505 32098 ft 448 kts 276°
2026-05-07 18:47 40.11109 -108.97646 32112 ft 449 kts 278°
2026-05-07 18:48 40.11445 -109.05756 32115 ft 450 kts 278°
2026-05-07 18:48 40.11762 -109.13930 32068 ft 451 kts 277°
2026-05-07 18:49 40.12059 -109.22133 32097 ft 452 kts 277°
2026-05-07 18:49 40.12346 -109.30349 32096 ft 453 kts 277°
2026-05-07 18:50 40.12626 -109.38525 32125 ft 453 kts 277°
2026-05-07 18:50 40.12902 -109.46752 32089 ft 452 kts 277°
2026-05-07 18:51 40.13171 -109.54958 32106 ft 450 kts 277°
2026-05-07 18:51 40.13425 -109.62838 32105 ft 450 kts 277°
2026-05-07 18:52 40.13670 -109.70598 32085 ft 449 kts 277°
2026-05-07 18:52 40.13923 -109.78770 32094 ft 449 kts 277°
2026-05-07 18:53 40.14167 -109.86877 32083 ft 449 kts 277°
2026-05-07 18:53 40.14407 -109.95046 32082 ft 449 kts 277°
2026-05-07 18:54 40.14644 -110.03219 32087 ft 450 kts 277°
2026-05-07 18:54 40.14875 -110.11404 32073 ft 450 kts 277°
2026-05-07 18:55 40.14955 -110.19613 32074 ft 454 kts 274°
2026-05-07 18:55 40.14842 -110.27885 32071 ft 456 kts 274°
2026-05-07 18:56 40.14746 -110.34779 32062 ft 457 kts 274°
2026-05-07 18:56 40.14640 -110.44458 32075 ft 458 kts 274°
2026-05-07 18:57 40.14570 -110.51435 32053 ft 457 kts 274°
2026-05-07 18:57 40.14484 -110.59690 32069 ft 457 kts 274°
2026-05-07 18:58 40.14391 -110.68016 32062 ft 457 kts 274°
2026-05-07 18:58 40.14289 -110.76264 32073 ft 450 kts 274°
2026-05-07 18:59 40.14183 -110.84416 32053 ft 446 kts 274°
2026-05-07 18:59 40.14076 -110.92519 32070 ft 445 kts 274°
2026-05-07 19:00 40.13964 -111.00607 32083 ft 450 kts 274°
2026-05-07 19:00 40.13842 -111.08778 32088 ft 449 kts 274°
2026-05-07 19:01 40.13820 -111.16914 31852 ft 441 kts 281°
2026-05-07 19:01 40.14458 -111.20781 31327 ft 432 kts 292°
2026-05-07 19:01 40.15591 -111.24379 30783 ft 425 kts 300°
2026-05-07 19:01 40.17126 -111.27653 30214 ft 418 kts 309°
2026-05-07 19:02 40.18881 -111.30615 29581 ft 416 kts 310°
2026-05-07 19:02 40.20650 -111.33590 29085 ft 412 kts 309°
2026-05-07 19:02 40.22393 -111.36538 28586 ft 407 kts 309°
2026-05-07 19:02 40.24113 -111.39467 28039 ft 404 kts 309°
2026-05-07 19:03 40.25815 -111.42383 27502 ft 402 kts 309°
2026-05-07 19:03 40.27505 -111.45289 26966 ft 400 kts 309°
2026-05-07 19:03 40.29177 -111.48173 26519 ft 395 kts 309°
2026-05-07 19:03 40.30827 -111.51024 26066 ft 391 kts 309°
2026-05-07 19:04 40.32464 -111.53856 25577 ft 388 kts 309°
2026-05-07 19:04 40.34093 -111.56675 25092 ft 387 kts 309°
2026-05-07 19:04 40.35722 -111.59477 24666 ft 384 kts 309°
2026-05-07 19:04 40.37326 -111.62276 24086 ft 385 kts 308°
2026-05-07 19:05 40.38932 -111.65077 23641 ft 382 kts 308°
2026-05-07 19:05 40.40514 -111.67845 23246 ft 376 kts 308°
2026-05-07 19:05 40.42083 -111.70576 22812 ft 372 kts 308°
2026-05-07 19:05 40.43635 -111.73270 22351 ft 370 kts 308°
2026-05-07 19:06 40.45168 -111.75938 21823 ft 370 kts 308°
2026-05-07 19:06 40.48196 -111.81243 21408 ft 367 kts 308°
2026-05-07 19:06 40.49721 -111.83922 21325 ft 365 kts 308°
2026-05-07 19:07 40.51216 -111.86545 21223 ft 362 kts 308°
2026-05-07 19:07 40.52725 -111.89189 21057 ft 361 kts 308°
2026-05-07 19:07 40.54237 -111.91837 20848 ft 361 kts 307°
2026-05-07 19:07 40.55746 -111.94478 20645 ft 361 kts 307°
2026-05-07 19:08 40.57255 -111.97120 20453 ft 361 kts 307°
2026-05-07 19:08 40.58758 -111.99758 20292 ft 360 kts 307°
2026-05-07 19:08 40.60256 -112.02393 20131 ft 359 kts 307°
2026-05-07 19:08 40.61784 -112.04969 19901 ft 355 kts 314°
2026-05-07 19:09 40.63770 -112.06920 19624 ft 361 kts 330°
2026-05-07 19:09 40.66116 -112.08143 19418 ft 366 kts 343°
2026-05-07 19:09 40.68646 -112.08583 19275 ft 369 kts 353°
2026-05-07 19:09 40.71201 -112.08797 19155 ft 366 kts 352°
2026-05-07 19:10 40.73719 -112.09051 19122 ft 361 kts 352°
2026-05-07 19:10 40.76209 -112.09329 19084 ft 357 kts 351°
2026-05-07 19:10 40.78678 -112.09619 19061 ft 353 kts 351°
2026-05-07 19:10 40.81117 -112.09909 19031 ft 349 kts 351°
2026-05-07 19:11 40.83483 -112.10199 19000 ft 345 kts 349°
2026-05-07 19:11 40.85839 -112.10632 18977 ft 340 kts 346°
2026-05-07 19:11 40.88156 -112.11121 18929 ft 335 kts 351°
2026-05-07 19:11 40.90486 -112.11195 18891 ft 334 kts 356°
2026-05-07 19:12 40.92789 -112.11109 18701 ft 329 kts 355°
2026-05-07 19:12 40.95037 -112.11075 18111 ft 316 kts 355°
2026-05-07 19:12 40.97194 -112.11048 17528 ft 304 kts 355°
2026-05-07 19:12 40.99281 -112.11022 16878 ft 296 kts 355°
2026-05-07 19:13 41.01320 -112.10998 16201 ft 291 kts 355°
2026-05-07 19:13 41.03338 -112.10976 15505 ft 288 kts 355°
2026-05-07 19:13 41.05343 -112.10963 14810 ft 289 kts 354°
2026-05-07 19:13 41.07368 -112.10950 14129 ft 293 kts 355°
2026-05-07 19:14 41.09421 -112.10936 13386 ft 296 kts 356°
2026-05-07 19:14 41.11458 -112.10407 12608 ft 306 kts 20°
2026-05-07 19:14 41.13194 -112.08752 11849 ft 313 kts 46°
2026-05-07 19:14 41.14283 -112.06245 11138 ft 318 kts 72°
2026-05-07 19:15 41.14528 -112.03377 10459 ft 319 kts 97°
2026-05-07 19:15 41.13864 -112.00533 9739 ft 324 kts 122°
2026-05-07 19:15 41.12389 -111.98331 9320 ft 321 kts 147°
2026-05-07 19:15 41.10520 -111.96806 9020 ft 311 kts 161°
2026-05-07 19:16 41.08464 -111.96338 8702 ft 296 kts 190°
2026-05-07 19:16 41.06524 -111.96904 8503 ft 276 kts 199°
2026-05-07 19:16 41.04704 -111.97471 8487 ft 263 kts 197°
2026-05-07 19:16 41.02919 -111.98007 8301 ft 262 kts 197°
2026-05-07 19:17 41.01174 -111.98533 8137 ft 254 kts 198°
2026-05-07 19:17 40.99468 -111.99047 7805 ft 248 kts 195°
2026-05-07 19:17 40.97806 -111.99508 7520 ft 240 kts 190°
2026-05-07 19:17 40.96152 -111.99530 7223 ft 236 kts 179°
2026-05-07 19:18 40.94565 -111.99326 6957 ft 228 kts 179°
2026-05-07 19:18 40.92990 -111.99124 6677 ft 226 kts 176°
2026-05-07 19:18 40.91443 -111.98941 6413 ft 222 kts 176°
2026-05-07 19:18 40.89910 -111.98763 6127 ft 218 kts 177°
2026-05-07 19:19 40.88439 -111.98590 5828 ft 202 kts 177°
2026-05-07 19:19 40.87132 -111.98436 5584 ft 179 kts 177°
2026-05-07 19:19 40.85918 -111.98294 5338 ft 173 kts 179°
2026-05-07 19:19 40.84667 -111.98127 5077 ft 186 kts 177°
2026-05-07 19:20 40.83403 -111.97995 4814 ft 175 kts 176°
2026-05-07 19:20 40.82240 -111.97865 4596 ft 162 kts 173°
2026-05-07 19:20 40.81120 -111.97737 4350 ft 159 kts 174°
2026-05-07 19:20 40.80058 -111.97608 4240 ft 142 kts 177°
2026-05-07 19:21 40.79210 -111.97515 4236 ft 102 kts 175°
2026-05-07 19:21 40.78750 -111.97459 4237 ft 30 kts 176°
2026-05-07 19:21 40.78548 -111.97514 4233 ft 27 kts 203°
2026-05-07 19:21 40.78470 -111.97601 4232 ft 14 kts 272°
2026-05-07 19:22 40.78554 -111.97656 4235 ft 14 kts 353°
2026-05-07 19:22 40.78670 -111.97670 4238 ft 23 kts 354°
2026-05-07 19:22 40.78836 -111.97691 4237 ft 24 kts 354°
2026-05-07 19:22 40.79003 -111.97710 4240 ft 24 kts 355°
2026-05-07 19:23 40.79168 -111.97728 4235 ft 24 kts 355°
2026-05-07 19:23 40.79336 -111.97746 4233 ft 24 kts 355°
2026-05-07 19:23 40.79503 -111.97766 4229 ft 24 kts 354°
2026-05-07 19:23 40.79670 -111.97786 4232 ft 24 kts 355°
2026-05-07 19:24 40.79837 -111.97806 4234 ft 24 kts 355°
2026-05-07 19:24 40.79995 -111.97825 4238 ft 16 kts 355°
2026-05-07 19:24 40.80061 -111.97906 4238 ft 14 kts 298°
2026-05-07 19:24 40.80158 -111.97940 4239 ft 20 kts 355°
2026-05-07 19:25 40.80310 -111.97958 4242 ft 22 kts 355°
2026-05-07 19:25 40.80464 -111.97976 4238 ft 22 kts 355°
2026-05-07 19:25 40.80592 -111.97994 4237 ft 13 kts 341°
2026-05-07 19:25 40.80614 -111.98104 4237 ft 13 kts 271°
2026-05-07 19:26 40.80606 -111.98223 4237 ft 13 kts 251°
2026-05-07 19:26 40.80540 -111.98253 4238 ft 9 kts 175°
2026-05-07 19:26 40.80526 -111.98251 4238 ft 0 kts 174°
2026-05-07 19:26 40.80523 -111.98251 4238 ft 0 kts 175°
2026-05-07 20:02 40.80526 -111.98251 4238 ft 3 kts 175°
2026-05-07 20:02 40.80553 -111.98256 4235 ft 4 kts 175°
2026-05-07 20:03 40.80580 -111.98257 4237 ft 4 kts 178°
2026-05-07 20:03 40.80605 -111.98261 4237 ft 4 kts 146°
2026-05-07 20:03 40.80612 -111.98273 4236 ft 1 kts 85°
2026-05-07 20:03 40.80612 -111.98278 4236 ft 1 kts 85°